EW7186 Weather Reports


Display with metric or nautical units.
time (UTC)temp
F
wind
direction
speed
MPH
gust
MPH
rain 1hr
in
rain 24hr
in
rain mn
in
humidity
%
barometer
mb
20260503211601 68 0 0.0 6.0 0.00 0.01 0.00 41 1016.3
20260503210050 68 0 1.0 6.0 0.00 0.01 0.00 41 1016.2
20260503204555 68 0 0.0 6.0 0.00 0.01 0.00 42 1016.3
20260503203105 67 0 0.0 5.0 0.00 0.01 0.00 48 1016.3
20260503201554 67 0 1.0 8.0 0.00 0.01 0.00 46 1016.8
20260503200053 66 0 2.0 5.0 0.00 0.01 0.00 45 1016.9
20260503194556 66 2 0.0 7.0 0.00 0.01 0.00 45 1017.1
20260503193054 65 316 0.0 8.0 0.00 0.01 0.00 48 1017.4
20260503191553 64 0 4.0 7.0 0.00 0.01 0.00 51 1017.7
20260503190053 64 0 0.0 6.0 0.00 0.01 0.00 51 1017.9
20260503184551 64 82 2.0 7.0 0.00 0.01 0.00 54 1018.2
20260503183053 63 68 3.0 7.0 0.00 0.01 0.00 55 1018.5
20260503181602 62 50 3.0 5.0 0.00 0.01 0.00 52 1018.8
20260503174557 61 51 3.0 5.0 0.00 0.01 0.00 54 1019.1
20260503173058 61 55 2.0 6.0 0.00 0.01 0.00 54 1019.2
20260503171554 60 53 4.0 6.0 0.00 0.01 0.00 55 1019.4
20260503081550 48 0 0.0 0.0 0.00 0.49 0.00 89 1016.6
20260503071603 49 0 0.0 0.0 0.00 0.52 0.00 88 1016.1
20260503060107 50 0 0.0 0.0 0.00 0.52 0.00 90 1016.0
20260503054556 51 0 0.0 0.0 0.00 0.52 0.00 90 1016.0
20260503053055 51 0 0.0 0.0 0.00 0.52 0.00 90 1015.9
20260503051555 51 0 0.0 0.0 0.00 0.52 0.00 91 1015.8
20260503050058 52 0 0.0 0.0 0.00 0.52 0.00 90 1015.8
20260503044605 52 0 0.0 0.0 0.00 0.52 0.00 91 1015.5
20260503043100 52 0 0.0 0.0 0.00 0.52 0.00 91 1015.3
20260503041604 53 0 0.0 0.0 0.00 0.52 0.00 91 1015.1
20260503040100 54 0 0.0 0.0 0.01 0.52 0.00 91 1015.1
20260503034555 53 0 0.0 2.0 0.01 0.52 0.52 91 1015.0
20260503033106 53 220 0.0 1.0 0.01 0.52 0.52 91 1015.1
20260503031600 54 0 0.0 0.0 0.01 0.52 0.52 91 1015.2
20260503030055 54 0 0.0 0.0 0.00 0.52 0.52 90 1015.4
20260503024554 54 0 0.0 3.0 0.00 0.52 0.52 89 1015.1
20260503023104 54 0 0.0 0.0 0.00 0.52 0.52 88 1015.3
20260503021555 54 0 0.0 1.0 0.00 0.52 0.52 88 1014.9
20260503020052 54 0 0.0 0.0 0.00 0.52 0.52 88 1014.5
20260503014549 55 0 0.0 0.0 0.00 0.52 0.52 87 1014.0
20260503013049 55 0 0.0 0.0 0.00 0.52 0.52 86 1013.5
20260503011602 55 0 0.0 0.0 0.00 0.52 0.52 86 1013.5
20260503010055 55 0 0.0 0.0 0.00 0.52 0.52 85 1013.1
20260503004548 55 0 0.0 0.0 0.00 0.52 0.52 85 1013.1
20260503003100 55 0 0.0 0.0 0.00 0.52 0.52 85 1012.9
20260503001553 56 0 0.0 0.0 0.00 0.52 0.52 84 1012.6
20260503000109 56 0 0.0 0.0 0.00 0.52 0.52 83 1012.4
20260502234554 57 0 0.0 0.0 0.00 0.52 0.52 81 1012.3
20260502233052 57 0 0.0 0.0 0.00 0.52 0.52 81 1012.0
20260502231549 58 0 0.0 3.0 0.00 0.52 0.52 80 1012.0
20260502230059 58 0 0.0 2.0 0.00 0.52 0.52 80 1011.8
20260502224554 58 0 0.0 5.0 0.00 0.52 0.52 79 1011.7
20260502223055 58 0 0.0 7.0 0.00 0.52 0.52 80 1012.0
20260502221552 58 66 5.0 8.0 0.00 0.52 0.52 79 1012.0
20260502220051 58 63 1.0 9.0 0.00 0.52 0.52 78 1012.1
20260502214551 57 65 7.0 10.0 0.00 0.52 0.52 77 1011.9
20260502213053 57 60 6.0 11.0 0.00 0.52 0.52 79 1011.7